Location: G�ppingen
(48.7000°N, 9.6670°E)
Time: 08:11:06
(UTC+02:00)

ISS - Visible Passes

Search period start: 24 October 2017 00:00
Search period end: 02 November 2017 23:00
Orbit: 400 x 408 km, 51.6° (Epoch: 24 October)

Date Brightness Start Highest point End Pass type
(mag) Time Alt. Az. Time Alt. Az. Time Alt. Az.
30 Oct -1.0 05:55:19 10° S 05:57:37 18° SE 05:59:56 10° E visible
31 Oct -0.7 05:04:35 10° SSE 05:05:26 11° SE 05:06:18 10° ESE visible
01 Nov -2.3 05:45:59 10° SSW 05:48:58 34° SE 05:51:57 10° E visible
02 Nov -1.7 04:56:01 20° SSE 04:56:40 21° SE 04:59:13 10° E visible
02 Nov -3.9 06:29:34 10° WSW 06:32:49 87° NNW 06:36:05 10° ENE visible
